Wind_Speed
18 18 19 20 20 22 22 21 22 22 21 20 21 21 23 26 25 23 20 16 9 10 14 12 14 14 12 8 7 5 2 4 5 6 4 2 5 4 6 6 9 9 15 11 9
19 20 20 21 22 22 23 24 24 24 22 22 20 22 21 26 29 28 9 13 11 12 18 14 15 14 7 6 6 4 3 8 6 6 5 12 6 6 3 6 9 15 21 17 13
16 18 20 20 22 23 23 24 24 24 24 23 21 20 20 22 25 4 5 6 10 13 15 13 10 12 6 5 7 5 6 5 6 12 11 6 9 4 5 9 14 12 14 16 14
14 15 16 18 18 19 19 20 22 22 23 23 22 22 18 17 6 4 3 6 10 14 14 13 15 8 5 6 7 5 11 9 5 7 4 5 7 6 12 15 12 8 11 10 11
15 16 17 18 20 20 21 21 20 21 21 22 21 23 18 9 20 21 19 10 11 13 15 13 16 9 6 6 4 6 6 8 16 11 13 11 14 12 20 17 16 14 9 10 9
17 17 17 18 19 21 22 22 22 24 21 22 22 22 14 8 13 9 11 15 16 12 14 15 9 13 5 5 7 3 8 12 11 13 11 9 8 2 6 6 11 11 11 10 9
18 18 18 19 20 21 22 24 25 25 24 24 23 22 16 33 17 15 20 14 12 19 21 15 14 8 8 2 8 4 7 9 9 6 4 8 5 7 7 7 10 10 10 8 7
18 18 19 19 21 22 23 25 27 27 23 20 18 16 14 21 19 22 22 24 19 16 17 17 12 12 5 2 1 2 1 6 1 3 2 1 7 3 2 11 13 11 11 8 8
18 18 19 20 22 22 23 24 28 22 18 12 8 10 12 11 10 4 5 8 12 22 14 10 12 7 5 4 3 1 7 6 7 1 3 3 8 5 6 8 12 14 12 10 10
19 18 18 20 22 24 24 23 17 14 8 2 2 5 12 5 4 5 1 6 6 18 12 12 6 4 3 7 11 8 5 5 8 3 1 6 14 15 7 12 11 13 12 12 12
20 19 18 19 20 21 24 21 7 4 10 8 10 15 15 9 11 5 9 3 8 13 10 8 8 13 23 15 5 6 5 6 5 5 4 9 10 16 12 11 10 14 14 14 14
20 19 17 18 19 19 13 5 7 9 16 26 30 32 38 29 11 11 6 7 9 7 8 4 13 15 8 9 13 7 8 12 12 2 6 8 16 16 5 8 8 15 17 16 15
22 20 17 16 17 15 8 0 7 13 7 12 10 10 10 16 14 21 16 3 6 7 15 13 5 14 13 10 12 16 17 13 13 9 3 6 6 5 2 5 8 9 16 17 20
22 19 15 15 12 8 5 5 11 13 4 6 4 3 4 5 6 9 22 17 5 11 8 10 11 8 10 14 15 14 11 13 11 5 6 5 8 8 13 10 8 12 17 19 22
19 19 15 11 11 11 8 10 10 2 5 1 2 0 3 6 9 6 4 12 13 5 5 6 6 16 10 8 13 12 7 13 11 8 5 6 6 2 2 12 12 11 16 19 25
22 20 14 12 15 12 11 7 3 1 8 4 3 2 2 6 3 0 3 4 5 8 3 4 2 6 9 12 14 3 4 2 2 2 7 10 7 6 4 5 4 2 9 18 24
21 15 13 12 12 8 6 5 3 5 4 2 3 4 2 5 3 3 3 5 3 5 10 4 8 3 4 4 5 9 6 4 4 4 8 6 7 14 7 9 9 11 7 12 22
15 15 15 17 17 11 6 1 9 2 4 3 3 5 4 9 6 6 4 3 6 4 1 9 7 12 8 13 6 14 13 4 6 6 7 4 7 6 8 9 9 12 8 9 17
14 16 18 16 14 8 5 5 5 5 4 5 4 2 3 4 3 4 5 3 5 8 2 3 4 2 6 10 15 6 8 14 2 1 1 4 5 7 8 9 4 6 7 15 17
15 13 18 15 10 9 4 8 4 1 4 3 1 2 3 6 4 4 3 3 2 8 3 5 4 3 3 3 5 7 8 5 6 7 11 5 5 7 3 5 6 6 8 11 15
12 5 6 15 13 10 7 6 3 3 4 2 2 2 3 3 3 4 4 1 4 8 5 6 1 6 5 1 6 5 10 2 3 4 8 5 6 8 13 11 6 7 5 10 15
12 4 9 13 10 5 7 4 3 3 3 2 1 2 2 1 1 1 3 2 8 4 4 6 1 2 4 10 8 5 3 11 10 8 3 5 12 2 11 6 6 8 8 6 12
8 10 10 21 7 9 6 9 7 3 2 3 2 1 1 3 3 3 3 3 13 5 5 6 1 3 5 0 3 3 6 7 4 5 18 12 6 5 5 5 11 11 17 14 11
9 3 12 22 16 10 12 9 8 10 15 8 3 1 1 3 3 1 2 4 9 12 8 1 3 7 6 5 3 7 14 17 10 10 12 17 16 7 6 9 8 13 17 15 14
16 5 7 5 12 14 12 6 17 10 9 7 3 11 4 4 3 3 3 9 10 11 4 5 5 6 11 10 14 13 14 17 20 18 14 10 16 15 16 10 15 21 12 10 12
12 7 5 7 13 15 14 13 15 15 8 8 9 7 14 11 10 8 4 1 4 6 4 4 1 2 6 13 15 18 20 20 22 20 22 18 19 7 16 16 13 18 15 18 19
26 16 12 6 10 5 12 17 19 15 14 19 14 11 10 11 10 9 13 15 12 9 5 4 2 1 4 1 8 12 12 12 19 19 17 17 11 8 9 8 10 18 20 22 27
Wind_Direction
303 302 307 309 307 308 310 310 310 309 309 312 313 313 314 313 312 308 296 279 245 231 195 186 183 187 189 213 202 170 178 212 207 182 248 228 301 289 260 242 247 231 240 258 273
305 304 302 303 306 305 304 308 310 308 308 308 310 312 313 312 317 315 282 251 227 206 185 183 182 186 185 210 199 191 206 214 207 196 252 296 271 281 230 235 257 255 253 253 265
312 316 317 313 308 305 308 305 305 309 305 303 305 304 311 313 323 314 324 181 184 178 179 174 181 179 187 201 205 193 235 206 224 227 259 271 289 242 226 270 256 258 278 252 248
328 326 327 327 325 324 316 312 310 304 308 305 301 300 305 305 301 311 292 175 186 186 185 178 171 177 180 202 212 228 252 229 260 245 205 261 280 260 232 272 264 277 262 238 229
320 322 324 325 326 324 323 320 313 311 311 309 302 295 304 283 260 277 266 239 201 201 203 195 181 179 190 191 188 237 258 240 255 257 270 267 259 264 260 260 258 264 234 217 249
314 318 321 321 322 319 320 317 316 314 306 299 301 297 290 271 275 266 256 233 221 215 215 210 218 206 201 202 201 244 255 269 287 273 260 258 270 215 310 253 227 221 215 232 247
307 313 316 318 317 316 316 316 315 308 304 298 291 285 264 259 265 265 267 249 248 239 232 223 220 200 175 201 240 273 283 294 257 259 247 184 242 235 296 198 185 212 226 237 232
308 313 315 317 315 316 317 317 318 311 306 299 281 261 253 278 263 259 259 257 241 231 226 214 207 222 209 220 6 293 247 283 18 188 57 225 282 263 284 187 189 209 230 251 237
304 309 313 315 315 317 319 318 317 309 313 305 254 220 263 268 272 226 236 234 213 218 210 186 203 197 164 188 259 204 255 246 298 274 121 206 291 289 295 200 193 198 218 235 232
303 304 308 312 316 321 324 326 312 300 320 311 224 244 252 263 239 219 223 197 186 195 179 200 197 176 157 175 219 207 220 231 245 169 85 274 270 289 259 241 212 201 207 219 226
303 298 304 310 314 325 331 344 337 271 302 256 254 248 277 278 279 229 202 158 148 163 180 187 194 198 205 197 179 195 221 239 250 236 281 278 284 295 293 252 219 200 202 210 221
304 299 298 305 313 322 338 37 41 329 299 291 272 258 256 262 293 232 238 210 182 188 139 153 224 221 174 196 216 219 233 251 296 350 217 291 292 288 235 255 244 204 207 206 210
301 300 294 299 308 311 328 98 345 332 270 293 265 260 265 230 235 257 236 234 213 188 189 196 195 189 186 193 208 225 231 244 254 330 267 291 268 288 272 264 261 216 211 215 212
299 296 299 297 299 291 292 228 324 331 302 277 258 260 202 207 243 269 233 210 220 204 177 220 228 164 203 206 198 234 219 240 257 284 280 4 294 262 278 261 246 226 206 205 209
289 294 292 292 274 287 283 295 311 33 310 83 186 260 231 187 307 24 205 186 224 177 160 209 188 212 214 213 189 239 189 207 227 243 278 257 270 281 276 282 275 239 214 204 211
287 285 285 275 272 277 285 305 268 173 248 314 141 177 207 214 273 116 120 177 218 232 256 216 204 168 211 211 190 230 204 91 85 172 254 228 236 272 237 222 260 210 217 198 206
284 274 269 264 260 266 288 307 190 217 338 360 351 337 317 358 11 16 145 176 151 169 225 203 216 206 169 134 180 209 171 193 202 203 244 202 205 250 260 258 251 284 249 208 206
271 270 256 245 254 275 291 191 218 213 257 329 328 306 83 13 13 358 110 94 22 335 271 201 232 193 187 207 184 203 205 192 214 220 244 150 225 252 245 277 266 265 253 213 205
268 265 256 241 250 250 241 210 213 203 313 332 312 84 64 356 43 43 46 86 44 10 314 6 254 300 209 199 187 171 197 213 230 28 276 206 262 283 269 276 277 293 221 196 199
261 266 255 244 231 212 213 237 232 308 349 345 114 31 87 6 41 22 31 4 42 9 332 9 285 292 358 169 215 208 158 162 220 229 239 212 244 230 273 282 267 299 257 221 194
239 244 250 218 211 199 226 228 273 284 346 333 24 55 64 56 27 30 349 28 38 358 40 357 118 304 328 200 192 178 221 229 213 214 244 252 239 211 232 252 284 302 268 230 207
218 226 228 197 184 218 221 201 288 336 3 354 283 183 228 7 3 259 238 295 331 344 17 358 34 282 286 284 287 248 261 234 241 235 238 264 241 231 232 236 229 280 311 262 233
210 230 244 197 213 214 224 227 244 262 336 349 310 346 29 202 261 241 271 293 53 63 34 350 14 329 312 209 27 29 344 306 229 236 250 254 246 288 246 237 245 274 293 286 260
192 225 213 217 226 209 204 226 212 222 235 244 285 309 171 195 223 235 303 287 326 316 307 261 241 230 236 260 276 296 304 296 280 264 256 244 257 287 263 236 241 252 263 264 257
191 225 209 194 227 210 202 214 220 223 212 217 254 225 181 194 180 202 267 300 321 310 266 196 240 249 260 260 279 270 286 287 265 253 254 260 240 226 242 243 242 246 253 247 247
189 199 226 239 209 204 210 213 220 220 210 212 219 215 222 230 233 256 230 128 284 3 26 24 268 291 271 243 246 274 290 282 265 267 271 271 260 229 240 247 267 261 252 251 252
217 220 233 249 243 225 214 215 210 213 222 226 211 227 235 234 238 266 259 256 253 275 295 292 285 270 269 351 266 268 236 293 276 257 243 238 229 212 234 259 261 272 276 270 271
Height
1525 1524 1524 1523 1521 1520 1518 1515 1514 1513 1511 1508 1507 1506 1504 1500 1498 1495 1493 1493 1492 1492 1491 1495 1498 1500 1502 1504 1504 1502 1505 1506 1502 1506 1495 1493 1493 1488 1487 1487 1484 1483 1481 1481 1481
1522 1522 1520 1519 1518 1516 1515 1513 1511 1510 1507 1505 1504 1503 1501 1498 1494 1491 1489 1486 1488 1489 1488 1492 1495 1499 1501 1503 1502 1501 1502 1497 1494 1494 1492 1489 1491 1487 1486 1484 1480 1478 1477 1477 1479
1520 1520 1519 1517 1515 1513 1512 1511 1509 1507 1503 1502 1501 1499 1499 1496 1493 1489 1488 1485 1487 1488 1489 1491 1493 1497 1498 1501 1499 1498 1493 1492 1489 1489 1490 1488 1488 1484 1482 1477 1475 1474 1473 1474 1476
1519 1517 1516 1515 1513 1512 1509 1508 1507 1502 1501 1499 1497 1495 1495 1494 1498 1489 1489 1486 1487 1488 1489 1489 1490 1494 1495 1496 1496 1496 1490 1489 1486 1485 1487 1487 1484 1482 1478 1472 1471 1471 1471 1473 1473
1517 1516 1515 1513 1512 1510 1508 1505 1502 1499 1498 1497 1493 1492 1493 1492 1484 1487 1487 1488 1487 1487 1487 1488 1487 1489 1490 1491 1493 1493 1488 1485 1484 1483 1482 1482 1479 1479 1469 1470 1468 1469 1469 1471 1472
1516 1514 1513 1511 1508 1508 1505 1503 1500 1498 1494 1492 1491 1489 1490 1492 1479 1479 1481 1483 1485 1485 1485 1485 1486 1485 1487 1487 1488 1486 1486 1483 1480 1479 1477 1477 1475 1476 1467 1465 1465 1466 1468 1469 1469
1513 1512 1509 1508 1507 1505 1503 1501 1497 1493 1489 1488 1486 1485 1485 1474 1475 1476 1476 1479 1480 1481 1482 1482 1484 1485 1483 1485 1484 1485 1485 1481 1476 1475 1472 1471 1472 1469 1465 1466 1466 1466 1468 1468 1468
1511 1510 1509 1506 1504 1501 1500 1497 1494 1489 1484 1482 1481 1480 1474 1466 1468 1469 1471 1469 1474 1476 1478 1479 1481 1483 1483 1482 1483 1484 1486 1482 1473 1471 1470 1471 1468 1463 1464 1466 1463 1464 1467 1468 1467
1507 1507 1506 1504 1502 1498 1495 1493 1491 1485 1481 1477 1476 1477 1469 1462 1462 1463 1465 1465 1467 1471 1475 1477 1479 1480 1481 1483 1485 1485 1483 1483 1474 1470 1469 1471 1467 1459 1461 1462 1462 1461 1461 1464 1467
1505 1505 1503 1502 1500 1497 1493 1490 1487 1483 1480 1476 1476 1479 1464 1462 1461 1461 1463 1462 1464 1466 1473 1475 1477 1477 1479 1479 1479 1478 1484 1481 1474 1469 1468 1469 1464 1458 1458 1457 1459 1459 1458 1460 1463
1502 1502 1501 1500 1497 1495 1493 1489 1488 1485 1479 1475 1473 1467 1460 1460 1460 1459 1461 1461 1462 1465 1467 1469 1472 1471 1463 1467 1470 1472 1477 1475 1468 1467 1467 1460 1461 1455 1453 1454 1455 1456 1455 1456 1460
1500 1497 1499 1498 1497 1495 1494 1490 1491 1492 1476 1465 1460 1457 1456 1460 1461 1457 1459 1460 1458 1459 1463 1469 1466 1464 1468 1471 1470 1472 1472 1471 1466 1466 1467 1458 1455 1449 1450 1447 1446 1450 1451 1453 1456
1497 1496 1495 1494 1495 1495 1494 1493 1492 1489 1483 1457 1453 1451 1450 1453 1453 1449 1456 1454 1454 1457 1456 1456 1458 1459 1465 1469 1471 1468 1468 1468 1469 1466 1462 1461 1453 1447 1445 1446 1443 1444 1445 1448 1451
1495 1495 1491 1491 1496 1494 1493 1492 1490 1487 1482 1458 1451 1449 1449 1449 1449 1443 1444 1451 1452 1452 1456 1458 1455 1457 1460 1461 1463 1468 1461 1465 1467 1471 1469 1461 1459 1449 1440 1439 1440 1437 1441 1442 1446
1492 1492 1490 1491 1492 1492 1493 1490 1488 1487 1476 1451 1448 1448 1448 1449 1446 1442 1441 1445 1447 1448 1451 1452 1452 1454 1457 1457 1460 1458 1458 1460 1463 1468 1469 1462 1466 1442 1444 1436 1429 1429 1434 1437 1441
1489 1489 1488 1489 1489 1489 1489 1488 1488 1486 1475 1451 1446 1446 1449 1446 1444 1441 1442 1445 1446 1450 1448 1448 1448 1449 1449 1451 1454 1454 1458 1462 1466 1467 1470 1459 1462 1436 1434 1429 1428 1427 1427 1430 1437
1484 1485 1486 1487 1487 1487 1487 1488 1486 1482 1457 1452 1449 1447 1446 1446 1442 1441 1441 1444 1446 1452 1449 1448 1446 1445 1445 1450 1453 1454 1460 1467 1472 1471 1459 1450 1459 1434 1426 1425 1424 1421 1425 1425 1431
1481 1481 1481 1483 1484 1486 1487 1487 1480 1461 1459 1455 1452 1448 1447 1450 1446 1443 1443 1446 1447 1445 1445 1447 1451 1440 1438 1440 1447 1450 1451 1457 1463 1460 1448 1453 1447 1429 1419 1420 1418 1419 1420 1419 1424
1477 1477 1477 1480 1482 1485 1487 1483 1463 1463 1459 1457 1452 1450 1452 1452 1450 1445 1448 1450 1453 1451 1449 1446 1445 1432 1432 1432 1435 1447 1453 1445 1457 1461 1456 1443 1435 1424 1416 1414 1415 1416 1416 1415 1417
1473 1474 1473 1476 1480 1484 1485 1470 1466 1463 1461 1458 1455 1455 1456 1457 1454 1451 1450 1452 1453 1453 1450 1450 1451 1433 1432 1431 1434 1435 1439 1453 1455 1456 1455 1441 1441 1426 1418 1412 1412 1412 1413 1416 1413
1471 1473 1470 1471 1477 1480 1476 1472 1466 1462 1461 1460 1459 1458 1461 1461 1459 1459 1456 1454 1455 1454 1451 1451 1450 1443 1434 1434 1433 1438 1439 1439 1438 1443 1438 1440 1431 1416 1411 1407 1410 1407 1408 1411 1412
1468 1469 1466 1468 1474 1471 1469 1469 1466 1462 1461 1461 1461 1461 1462 1462 1463 1461 1458 1455 1453 1454 1455 1454 1453 1452 1442 1433 1432 1432 1435 1435 1441 1438 1442 1436 1419 1408 1405 1407 1406 1405 1405 1408 1409
1463 1465 1464 1465 1461 1464 1466 1466 1466 1464 1462 1463 1462 1461 1461 1461 1464 1462 1460 1457 1454 1455 1459 1457 1455 1453 1436 1432 1433 1437 1438 1434 1433 1434 1430 1438 1422 1406 1405 1406 1404 1403 1402 1404 1408
1460 1459 1459 1459 1456 1458 1462 1462 1462 1461 1462 1464 1463 1462 1461 1461 1461 1462 1462 1458 1455 1455 1458 1458 1455 1451 1448 1446 1448 1447 1444 1442 1447 1433 1424 1416 1419 1409 1406 1404 1400 1401 1399 1399 1402
1449 1448 1447 1447 1449 1453 1455 1455 1457 1459 1459 1460 1461 1461 1460 1461 1463 1464 1462 1456 1453 1452 1451 1454 1454 1452 1449 1447 1444 1443 1440 1437 1433 1426 1422 1413 1409 1407 1403 1401 1397 1396 1396 1397 1398
1440 1441 1444 1442 1442 1447 1447 1448 1451 1454 1455 1454 1457 1454 1456 1461 1459 1458 1458 1458 1456 1454 1452 1455 1455 1456 1453 1449 1444 1436 1426 1422 1420 1419 1414 1411 1405 1401 1397 1397 1396 1394 1395 1396 1395
1433 1437 1442 1438 1438 1441 1438 1440 1444 1447 1448 1449 1450 1452 1454 1455 1457 1458 1458 1458 1459 1460 1460 1459 1458 1456 1441 1440 1439 1432 1421 1417 1409 1402 1398 1401 1398 1394 1394 1392 1392 1391 1392 1391 1392